ARG2552 MROC-MHTG

Flight info

Callsign ARG2552
Flight time 0h 32m
Altitude 38000
Route NANJO3U ULAPO UA502 LIBIS LIBIS1A
Aircraft B737/M-SDE2E3FGHIRWXY/LB1

Departure

Time 2026-04-28 03:32
Airport Juan Santamaría International Airport (MROC)

Arrival

Time 2026-04-28 04:04
Airport Toncontín Airport (MHTG)
Time Latitude Longitude Altitude Speed Heading
2026-04-28 03:14 9.99748 -84.20351 3026 ft 0 kts 338°
2026-04-28 03:25 9.99728 -84.20344 3026 ft 4 kts 345°
2026-04-28 03:25 9.99702 -84.20340 3025 ft 4 kts
2026-04-28 03:25 9.99685 -84.20341 3025 ft 1 kts
2026-04-28 03:25 9.99683 -84.20341 3025 ft 0 kts
2026-04-28 03:27 9.99687 -84.20337 3029 ft 2 kts 41°
2026-04-28 03:27 9.99708 -84.20297 3027 ft 10 kts 66°
2026-04-28 03:27 9.99738 -84.20229 3030 ft 11 kts 66°
2026-04-28 03:28 9.99764 -84.20149 3033 ft 12 kts 72°
2026-04-28 03:28 9.99789 -84.20063 3036 ft 13 kts 87°
2026-04-28 03:28 9.99729 -84.19992 3037 ft 16 kts 154°
2026-04-28 03:28 9.99623 -84.19939 3038 ft 17 kts 138°
2026-04-28 03:29 9.99611 -84.19825 3041 ft 17 kts 71°
2026-04-28 03:29 9.99651 -84.19716 3046 ft 16 kts 69°
2026-04-28 03:29 9.99685 -84.19624 3050 ft 5 kts 69°
2026-04-28 03:29 9.99687 -84.19621 3050 ft 0 kts 69°
2026-04-28 03:30 9.99691 -84.19612 3050 ft 7 kts 61°
2026-04-28 03:30 9.99772 -84.19601 3052 ft 17 kts 335°
2026-04-28 03:31 9.99815 -84.19761 3046 ft 47 kts 253°
2026-04-28 03:31 9.99609 -84.20309 3028 ft 118 kts 249°
2026-04-28 03:31 9.99244 -84.21274 3026 ft 170 kts 249°
2026-04-28 03:31 9.98842 -84.22422 3599 ft 176 kts 254°
2026-04-28 03:32 9.98609 -84.23715 4081 ft 197 kts 266°
2026-04-28 03:32 9.98617 -84.25145 4737 ft 203 kts 275°
2026-04-28 03:32 9.98883 -84.26497 5585 ft 202 kts 297°
2026-04-28 03:32 9.99908 -84.27574 5873 ft 227 kts 328°
2026-04-28 03:33 10.01330 -84.28482 6091 ft 257 kts 327°
2026-04-28 03:33 10.02896 -84.29536 6507 ft 278 kts 326°
2026-04-28 03:33 10.04503 -84.30687 7292 ft 285 kts 324°
2026-04-28 03:33 10.06094 -84.31881 8173 ft 289 kts 323°
2026-04-28 03:34 10.07706 -84.33123 9079 ft 292 kts 323°
2026-04-28 03:34 10.09334 -84.34391 9975 ft 296 kts 323°
2026-04-28 03:34 10.10993 -84.35693 10655 ft 311 kts 322°
2026-04-28 03:34 10.12721 -84.37142 11076 ft 330 kts 320°
2026-04-28 03:35 10.14484 -84.38675 11854 ft 336 kts 320°
2026-04-28 03:35 10.16263 -84.40234 12747 ft 338 kts 320°
2026-04-28 03:35 10.18059 -84.41808 13616 ft 342 kts 320°
2026-04-28 03:35 10.19854 -84.43378 14378 ft 348 kts 320°
2026-04-28 03:36 10.21704 -84.44990 15147 ft 353 kts 320°
2026-04-28 03:36 10.23585 -84.46627 15917 ft 357 kts 320°
2026-04-28 03:36 10.25487 -84.48279 16691 ft 362 kts 320°
2026-04-28 03:36 10.27414 -84.49951 17435 ft 366 kts 320°
2026-04-28 03:37 10.29366 -84.51645 18156 ft 371 kts 320°
2026-04-28 03:37 10.31341 -84.53359 18863 ft 375 kts 320°
2026-04-28 03:37 10.33332 -84.55087 19547 ft 379 kts 320°
2026-04-28 03:37 10.35324 -84.56816 20192 ft 383 kts 320°
2026-04-28 03:38 10.37390 -84.58610 20841 ft 387 kts 319°
2026-04-28 03:38 10.39424 -84.60376 21452 ft 391 kts 319°
2026-04-28 03:38 10.41501 -84.62180 22071 ft 395 kts 319°
2026-04-28 03:38 10.43593 -84.63997 22717 ft 397 kts 319°
2026-04-28 03:39 10.45697 -84.65824 23330 ft 399 kts 319°
2026-04-28 03:39 10.47816 -84.67665 23874 ft 403 kts 319°
2026-04-28 03:39 10.49961 -84.69530 24349 ft 408 kts 318°
2026-04-28 03:39 10.52140 -84.71424 24758 ft 414 kts 318°
2026-04-28 03:40 10.53589 -84.72685 25048 ft 417 kts 318°
2026-04-28 03:40 10.55806 -84.74613 25561 ft 420 kts 318°
2026-04-28 03:40 10.58772 -84.77192 26222 ft 423 kts 317°
2026-04-28 03:40 10.61023 -84.79150 26680 ft 427 kts 317°
2026-04-28 03:41 10.62522 -84.80454 26971 ft 429 kts 317°
2026-04-28 03:41 10.64807 -84.82441 27400 ft 433 kts 317°
2026-04-28 03:41 10.67101 -84.84437 27832 ft 436 kts 317°
2026-04-28 03:41 10.69413 -84.86450 28258 ft 438 kts 317°
2026-04-28 03:42 10.71740 -84.88477 28662 ft 442 kts 317°
2026-04-28 03:42 10.74083 -84.90517 29062 ft 445 kts 317°
2026-04-28 03:42 10.76445 -84.92576 29447 ft 448 kts 316°
2026-04-28 03:42 10.78815 -84.94641 29833 ft 451 kts 316°
2026-04-28 03:43 10.81181 -84.96703 30218 ft 453 kts 316°
2026-04-28 03:43 10.83577 -84.98792 30593 ft 455 kts 316°
2026-04-28 03:43 10.84390 -84.99500 30731 ft 456 kts 316°
2026-04-28 03:43 10.89428 -85.03892 31537 ft 458 kts 316°
2026-04-28 03:44 10.99060 -85.12296 33406 ft 453 kts 316°
2026-04-28 03:44 11.08506 -85.20658 35331 ft 442 kts 313°
2026-04-28 03:44 11.17433 -85.29253 36676 ft 441 kts 312°
2026-04-28 03:44 11.26402 -85.37827 37853 ft 441 kts 313°
2026-04-28 03:45 11.35529 -85.46496 38094 ft 456 kts 313°
2026-04-28 03:45 11.44823 -85.55152 37995 ft 458 kts 315°
2026-04-28 03:45 11.54354 -85.63603 37902 ft 446 kts 316°
2026-04-28 03:45 11.63449 -85.71752 37822 ft 426 kts 315°
2026-04-28 03:46 11.81024 -85.87608 37946 ft 422 kts 316°
2026-04-28 03:46 11.98946 -86.03787 37978 ft 440 kts 316°
2026-04-28 03:47 12.17612 -86.20353 37895 ft 443 kts 321°
2026-04-28 03:47 12.37502 -86.34692 37854 ft 427 kts 321°
2026-04-28 03:48 12.56638 -86.48870 37937 ft 426 kts 322°
2026-04-28 03:48 12.75993 -86.63198 37953 ft 439 kts 322°
2026-04-28 03:49 12.85978 -86.70601 35747 ft 443 kts 322°
2026-04-28 03:49 12.95810 -86.77898 33728 ft 428 kts 321°
2026-04-28 03:49 13.05256 -86.85027 31857 ft 415 kts 321°
2026-04-28 03:49 13.14418 -86.91961 30080 ft 402 kts 322°
2026-04-28 03:50 13.23334 -86.98574 28340 ft 388 kts 323°
2026-04-28 03:50 13.31977 -87.04948 26530 ft 377 kts 324°
2026-04-28 03:50 13.40356 -87.11156 24735 ft 365 kts 324°
2026-04-28 03:50 13.48473 -87.17177 22964 ft 353 kts 325°
2026-04-28 03:51 13.56254 -87.22952 21217 ft 343 kts 326°
2026-04-28 03:51 13.64435 -87.27055 19539 ft 324 kts
2026-04-28 03:51 13.73017 -87.27343 18158 ft 287 kts 358°
2026-04-28 03:51 13.79944 -87.27797 17166 ft 221 kts 359°
2026-04-28 03:52 13.85753 -87.28137 15737 ft 198 kts 359°
2026-04-28 03:52 13.90806 -87.27093 14983 ft 195 kts 20°
2026-04-28 03:52 13.95091 -87.25535 14719 ft 142 kts 19°
2026-04-28 03:52 13.98791 -87.24283 12826 ft 131 kts 18°
2026-04-28 03:53 14.01897 -87.23246 12004 ft 147 kts 18°
2026-04-28 03:53 14.03101 -87.22730 11266 ft 143 kts 39°
2026-04-28 03:53 14.04985 -87.20792 9717 ft 144 kts 44°
2026-04-28 03:53 14.06463 -87.19232 9754 ft 170 kts 46°
2026-04-28 03:54 14.08536 -87.18094 9165 ft 169 kts 17°
2026-04-28 03:54 14.10839 -87.17567 8670 ft 170 kts
2026-04-28 03:54 14.12728 -87.17605 8240 ft 168 kts 354°
2026-04-28 03:54 14.13488 -87.17750 8080 ft 166 kts 349°
2026-04-28 03:55 14.14601 -87.18090 7825 ft 167 kts 342°
2026-04-28 03:55 14.15981 -87.18792 7487 ft 168 kts 331°
2026-04-28 03:55 14.16631 -87.19245 7323 ft 166 kts 326°
2026-04-28 03:55 14.17752 -87.20285 6981 ft 163 kts 315°
2026-04-28 03:56 14.18235 -87.20879 6824 ft 164 kts 309°
2026-04-28 03:56 14.18867 -87.21858 6592 ft 165 kts 302°
2026-04-28 03:56 14.19373 -87.22941 6532 ft 168 kts 294°
2026-04-28 03:56 14.19729 -87.24098 6498 ft 169 kts 285°
2026-04-28 03:57 14.19922 -87.25275 6467 ft 164 kts 276°
2026-04-28 03:57 14.19954 -87.26460 6496 ft 168 kts 268°
2026-04-28 03:57 14.19823 -87.27651 6501 ft 168 kts 259°
2026-04-28 03:57 14.19530 -87.28821 6494 ft 169 kts 251°
2026-04-28 03:58 14.19086 -87.29923 6484 ft 168 kts 242°
2026-04-28 03:58 14.18495 -87.30956 6488 ft 167 kts 234°
2026-04-28 03:58 14.17770 -87.31891 6495 ft 166 kts 226°
2026-04-28 03:58 14.16917 -87.32690 6482 ft 165 kts 214°
2026-04-28 03:59 14.15942 -87.33286 6494 ft 163 kts 201°
2026-04-28 03:59 14.14895 -87.33635 6473 ft 152 kts 188°
2026-04-28 03:59 14.13868 -87.33734 6463 ft 145 kts 175°
2026-04-28 03:59 14.12869 -87.33633 6496 ft 145 kts 166°
2026-04-28 04:00 14.11933 -87.33324 6509 ft 142 kts 155°
2026-04-28 04:00 14.11020 -87.32910 6498 ft 143 kts 153°
2026-04-28 04:00 14.10105 -87.32482 6508 ft 145 kts 152°
2026-04-28 04:00 14.09200 -87.32001 6502 ft 146 kts 144°
2026-04-28 04:01 14.08414 -87.31359 6492 ft 142 kts 133°
2026-04-28 04:01 14.07784 -87.30593 6482 ft 140 kts 122°
2026-04-28 04:01 14.07244 -87.29745 6263 ft 143 kts 120°
2026-04-28 04:01 14.06715 -87.28889 5843 ft 144 kts 120°
2026-04-28 04:02 14.06161 -87.28000 5345 ft 149 kts 121°
2026-04-28 04:02 14.05607 -87.27106 4988 ft 149 kts 120°
2026-04-28 04:02 14.05078 -87.26192 4726 ft 147 kts 120°
2026-04-28 04:02 14.04590 -87.25280 4510 ft 143 kts 117°
2026-04-28 04:03 14.04189 -87.24346 4240 ft 143 kts 108°
2026-04-28 04:03 14.04005 -87.23361 3965 ft 143 kts 88°
2026-04-28 04:03 14.04436 -87.22458 3684 ft 146 kts 40°
2026-04-28 04:03 14.05321 -87.21987 3318 ft 137 kts 18°
2026-04-28 04:04 14.06123 -87.21709 3271 ft 97 kts 19°
2026-04-28 04:04 14.06564 -87.21553 3270 ft 48 kts 19°
2026-04-28 04:04 14.06779 -87.21477 3271 ft 21 kts 18°
2026-04-28 04:04 14.06863 -87.21525 3270 ft 11 kts 249°
2026-04-28 04:05 14.06795 -87.21561 3269 ft 11 kts 201°
2026-04-28 04:05 14.06722 -87.21587 3269 ft 11 kts 198°
2026-04-28 04:05 14.06652 -87.21611 3267 ft 11 kts 198°
2026-04-28 04:05 14.06583 -87.21635 3268 ft 10 kts 198°
2026-04-28 04:06 14.06517 -87.21658 3271 ft 10 kts 198°
2026-04-28 04:06 14.06452 -87.21680 3269 ft 10 kts 199°
2026-04-28 04:06 14.06389 -87.21703 3268 ft 9 kts 199°
2026-04-28 04:06 14.06328 -87.21724 3267 ft 9 kts 198°
2026-04-28 04:07 14.06268 -87.21745 3271 ft 9 kts 198°
2026-04-28 04:07 14.06210 -87.21765 3271 ft 9 kts 198°
2026-04-28 04:07 14.06153 -87.21784 3271 ft 8 kts 198°
2026-04-28 04:07 14.06099 -87.21801 3270 ft 6 kts 204°
2026-04-28 04:08 14.06090 -87.21841 3268 ft 6 kts 283°
2026-04-28 04:08 14.06097 -87.21865 3271 ft 2 kts 288°
2026-04-28 04:08 14.06099 -87.21869 3272 ft 0 kts 288°